TimeEDT,TemperatureF,Dew PointF,Humidity,Sea Level PressureIn,VisibilityMPH,Wind Direction,Wind SpeedMPH,Gust SpeedMPH,PrecipitationIn,Events,Conditions,WindDirDegrees,DateUTC
12:15 AM,34.2,27.9,78,29.74,10.0,SSW,3.5,-,N/A,,Overcast,210,2013-03-14 04:15:00
12:35 AM,34.2,26.6,74,29.74,10.0,SSW,3.5,-,N/A,,Overcast,200,2013-03-14 04:35:00
12:55 AM,34.2,26.2,73,29.73,10.0,SSW,3.5,-,N/A,,Overcast,210,2013-03-14 04:55:00
1:15 AM,34.2,26.2,73,29.73,10.0,WSW,3.5,-,N/A,,Overcast,240,2013-03-14 05:15:00
1:35 AM,34.2,26.6,74,29.73,5.0,SSW,3.5,-,N/A,Snow,Light Snow,210,2013-03-14 05:35:00
1:55 AM,34.2,27.1,75,29.73,10.0,Calm,Calm,-,N/A,,Overcast,0,2013-03-14 05:55:00
2:15 AM,34.2,27.0,75,29.73,10.0,SW,3.5,-,N/A,Snow,Light Snow,220,2013-03-14 06:15:00
2:35 AM,34.2,24.4,68,29.73,7.0,SW,4.6,-,N/A,Snow,Light Snow,220,2013-03-14 06:35:00
2:55 AM,34.2,23.4,65,29.72,10.0,SW,3.5,-,N/A,,Overcast,230,2013-03-14 06:55:00
3:15 AM,34.2,22.5,62,29.72,10.0,South,4.6,-,N/A,,Overcast,180,2013-03-14 07:15:00
3:35 AM,34.2,23.0,64,29.71,10.0,South,4.6,-,N/A,,Overcast,190,2013-03-14 07:35:00
3:55 AM,33.6,22.1,63,29.71,10.0,SSW,4.6,-,N/A,,Overcast,210,2013-03-14 07:55:00
4:15 AM,32.5,20.7,62,29.71,10.0,SW,4.6,-,N/A,,Overcast,230,2013-03-14 08:15:00
4:35 AM,32.0,20.1,62,29.71,10.0,SW,5.8,-,N/A,,Overcast,230,2013-03-14 08:35:00
4:55 AM,32.0,20.1,62,29.71,10.0,SW,5.8,-,N/A,,Overcast,230,2013-03-14 08:55:00
5:15 AM,32.0,20.1,62,29.71,10.0,WSW,4.6,-,N/A,,Overcast,240,2013-03-14 09:15:00
5:35 AM,32.0,21.2,64,29.71,7.0,WSW,8.1,-,N/A,Snow,Light Snow,240,2013-03-14 09:35:00
5:55 AM,31.1,22.1,69,29.72,5.0,WSW,6.9,-,N/A,Snow,Light Snow,240,2013-03-14 09:55:00
6:15 AM,29.3,24.6,83,29.73,1.5,WSW,4.6,-,N/A,Snow,Light Snow,240,2013-03-14 10:15:00
6:35 AM,29.3,23.9,80,29.73,10.0,West,9.2,-,N/A,Snow,Light Snow,260,2013-03-14 10:35:00
6:55 AM,29.3,19.4,67,29.74,10.0,West,8.1,18.4,N/A,,Overcast,280,2013-03-14 10:55:00
7:15 AM,27.3,20.5,75,29.75,2.0,West,6.9,-,N/A,Snow,Light Snow,280,2013-03-14 11:15:00
7:35 AM,27.0,19.9,75,29.77,3.0,West,8.1,-,N/A,,Haze,280,2013-03-14 11:35:00
7:55 AM,24.6,16.7,72,29.78,5.0,West,8.1,17.3,N/A,,Haze,270,2013-03-14 11:55:00
8:15 AM,24.4,15.3,68,29.79,10.0,West,9.2,17.3,N/A,,Overcast,270,2013-03-14 12:15:00
8:35 AM,23.4,15.1,71,29.79,3.0,West,10.4,16.1,N/A,,Haze,260,2013-03-14 12:35:00
8:55 AM,22.8,13.1,66,29.81,10.0,WNW,5.8,-,N/A,,Overcast,290,2013-03-14 12:55:00
9:15 AM,21.9,12.0,66,29.82,2.5,West,9.2,18.4,N/A,Snow,Light Snow,270,2013-03-14 13:15:00
9:35 AM,21.9,12.0,66,29.82,5.0,West,11.5,19.6,N/A,Snow,Light Snow,280,2013-03-14 13:35:00
9:55 AM,21.9,11.5,64,29.83,5.0,West,8.1,-,N/A,Snow,Light Snow,270,2013-03-14 13:55:00
10:15 AM,21.6,9.9,61,29.83,10.0,West,10.4,18.4,N/A,Snow,Light Snow,270,2013-03-14 14:15:00
10:35 AM,21.9,10.9,63,29.84,5.0,West,10.4,-,N/A,Snow,Light Snow,270,2013-03-14 14:35:00
10:55 AM,21.9,10.2,61,29.83,7.0,West,8.1,17.3,N/A,Snow,Light Snow,270,2013-03-14 14:55:00
11:15 AM,22.3,10.0,59,29.84,10.0,West,12.7,17.3,N/A,,Overcast,280,2013-03-14 15:15:00
11:35 AM,22.8,9.5,57,29.83,10.0,WNW,10.4,-,N/A,,Overcast,290,2013-03-14 15:35:00
11:55 AM,22.8,8.8,55,29.83,10.0,West,10.4,19.6,N/A,,Overcast,260,2013-03-14 15:55:00
12:15 PM,22.6,8.8,55,29.83,10.0,WNW,12.7,19.6,N/A,,Overcast,290,2013-03-14 16:15:00
12:35 PM,22.8,7.9,53,29.84,10.0,WNW,12.7,20.7,N/A,,Overcast,300,2013-03-14 16:35:00
12:55 PM,23.0,7.2,51,29.84,10.0,West,8.1,23.0,N/A,,Scattered Clouds,280,2013-03-14 16:55:00
1:15 PM,23.4,7.3,50,29.84,10.0,WNW,13.8,20.7,N/A,,Scattered Clouds,300,2013-03-14 17:15:00
1:35 PM,22.3,6.4,51,29.84,10.0,WNW,10.4,20.7,N/A,,Mostly Cloudy,290,2013-03-14 17:35:00
1:55 PM,21.2,4.6,49,29.85,10.0,West,10.4,23.0,N/A,,Mostly Cloudy,270,2013-03-14 17:55:00
2:15 PM,22.3,5.0,48,29.85,10.0,WNW,11.5,18.4,N/A,,Overcast,290,2013-03-14 18:15:00
2:35 PM,21.2,4.5,49,29.85,10.0,West,8.1,16.1,N/A,,Overcast,270,2013-03-14 18:35:00
2:55 PM,21.2,4.8,49,29.85,10.0,West,6.9,20.7,N/A,,Overcast,270,2013-03-14 18:55:00
3:15 PM,22.1,3.9,46,29.85,10.0,West,11.5,19.6,N/A,,Overcast,270,2013-03-14 19:15:00
3:35 PM,21.6,2.5,44,29.86,10.0,West,10.4,20.7,N/A,,Overcast,270,2013-03-14 19:35:00
3:55 PM,21.0,2.7,45,29.86,10.0,West,8.1,18.4,N/A,,Overcast,280,2013-03-14 19:55:00
4:15 PM,21.0,1.8,43,29.87,10.0,West,8.1,17.3,N/A,,Overcast,280,2013-03-14 20:15:00
4:35 PM,20.7,2.1,45,29.87,10.0,West,10.4,17.3,N/A,,Overcast,280,2013-03-14 20:35:00
4:55 PM,20.5,1.0,43,29.87,10.0,West,10.4,19.6,N/A,,Overcast,280,2013-03-14 20:55:00
5:15 PM,20.7,2.1,45,29.87,10.0,West,11.5,18.4,N/A,,Overcast,260,2013-03-14 21:15:00
5:35 PM,20.7,1.0,43,29.87,10.0,WNW,12.7,19.6,N/A,,Overcast,290,2013-03-14 21:35:00
5:55 PM,20.7,1.0,43,29.88,10.0,WNW,9.2,17.3,N/A,,Overcast,290,2013-03-14 21:55:00
6:15 PM,20.3,2.5,46,29.88,10.0,West,5.8,-,N/A,,Overcast,270,2013-03-14 22:15:00
6:35 PM,19.9,2.3,46,29.88,10.0,West,5.8,-,N/A,,Overcast,280,2013-03-14 22:35:00
6:55 PM,19.4,2.1,47,29.89,10.0,WNW,10.4,17.3,N/A,,Overcast,290,2013-03-14 22:55:00
7:15 PM,19.4,3.0,49,29.89,10.0,WNW,8.1,18.4,N/A,,Overcast,290,2013-03-14 23:15:00
7:35 PM,19.4,5.2,54,29.90,10.0,WNW,8.1,-,N/A,,Overcast,300,2013-03-14 23:35:00
7:55 PM,19.4,4.6,53,29.90,10.0,West,8.1,-,N/A,,Overcast,280,2013-03-14 23:55:00
8:15 PM,19.4,4.3,52,29.90,10.0,NW,8.1,17.3,N/A,,Overcast,310,2013-03-15 00:15:00
8:35 PM,19.4,5.9,56,29.91,10.0,West,5.8,-,N/A,,Overcast,280,2013-03-15 00:35:00
8:55 PM,19.4,6.6,58,29.91,10.0,WNW,10.4,16.1,N/A,,Mostly Cloudy,290,2013-03-15 00:55:00
9:15 PM,19.4,7.3,60,29.91,10.0,WNW,5.8,-,N/A,,Overcast,290,2013-03-15 01:15:00
9:35 PM,19.4,5.2,54,29.91,10.0,West,4.6,-,N/A,,Overcast,280,2013-03-15 01:35:00
9:55 PM,19.4,4.1,52,29.91,10.0,WNW,8.1,-,N/A,,Overcast,290,2013-03-15 01:55:00
10:15 PM,19.4,4.5,52,29.91,10.0,WNW,3.5,-,N/A,,Overcast,300,2013-03-15 02:15:00
10:35 PM,19.4,5.5,55,29.92,10.0,West,8.1,-,N/A,,Mostly Cloudy,280,2013-03-15 02:35:00
10:55 PM,19.4,4.8,53,29.91,10.0,WNW,5.8,-,N/A,,Scattered Clouds,290,2013-03-15 02:55:00
11:15 PM,18.3,3.9,53,29.91,10.0,West,4.6,-,N/A,,Scattered Clouds,280,2013-03-15 03:15:00
11:35 PM,17.4,3.9,56,29.92,10.0,West,4.6,-,N/A,,Clear,270,2013-03-15 03:35:00
11:55 PM,17.6,3.9,55,29.92,10.0,West,8.1,-,N/A,,Clear,280,2013-03-15 03:55:00